This demonstration page uses our WeatherBlox Daily Observations layout. Learn more.

Left ArrowRight Arrow

41.12389, -100.76542

Hourly Observations for September 27, 2017

Temp ( °F °C ) Dew Point ( °F °C ) Humidity (%) Winds ( mph kmh ) Pressure ( in mb ) Visibility ( mi km ) Precip ( " mm )
12:53 am 00:53 Clear 47 8.3 45 7.2 93 93 Calm 30.22 1024 10 16 0.00 0.00
1:53 am 01:53 Clear 45 7.2 43 6.1 93 93 Calm 30.22 1023 10 16 0.00 0.00
2:53 am 02:53 Clear 43 6.1 42 5.6 97 97 Calm 30.23 1024 10 16 0.00 0.00
3:34 am 03:34 Partly Cloudy with Mist and Fog 43 6.1 42 5.6 97 97 Calm 30.27 1025 3 4 0.00 0.00
3:37 am 03:37 Partly Cloudy with Mist and Fog 42 5.6 42 5.6 100 100 Calm 30.27 1025 1 2 0.00 0.00
3:41 am 03:41 Mostly Cloudy with Mist and Fog 43 6.1 42 5.6 97 97 Calm 30.27 1025 1 1 0.00 0.00
3:53 am 03:53 Mostly Cloudy with Mist and Fog 42 5.6 41 5 96 96 Calm 30.24 1024 1 2 0.00 0.00
3:57 am 03:57 Mostly Cloudy with Mist and Fog 41 5 40 4.4 96 96 Calm 30.27 1025 3 5 0.00 0.00
4:01 am 04:01 Mostly Cloudy with Mist and Fog 41 5 40 4.4 96 96 Calm 30.27 1025 1 2 0.00 0.00
4:11 am 04:11 Mostly Cloudy with Fog 42 5.6 41 5 96 96 SE 3 6 30.27 1025 1 1 0.00 0.00
4:27 am 04:27 Mostly Cloudy with Fog 41 5 40 4.4 96 96 Calm 30.27 1025 0 0 0.00 0.00
4:41 am 04:41 Mostly Cloudy with Mist and Fog 41 5 40 4.4 96 96 Calm 30.27 1025 1 1 0.00 0.00
4:46 am 04:46 Clear with Mist and Fog 41 5 40 4.4 96 96 Calm 30.27 1025 1 1 0.00 0.00
4:53 am 04:53 Clear with Mist and Fog 40 4.4 40 4.4 100 100 Calm 30.24 1024 2 3 0.00 0.00
4:58 am 04:58 Clear with Mist and Fog 41 5 40 4.4 96 96 Calm 30.27 1025 1 2 0.00 0.00
5:10 am 05:10 Clear with Mist and Fog 41 5 40 4.4 96 96 Calm 30.27 1025 1 1 0.00 0.00
5:21 am 05:21 Mostly Cloudy with Fog 40 4.4 40 4.4 100 100 ESE 3 6 30.30 1026 1 1 0.00 0.00
5:37 am 05:37 Mostly Clear with Mist and Fog 41 5 40 4.4 96 96 Calm 30.27 1025 1 2 0.00 0.00
5:40 am 05:40 Mostly Clear with Mist and Fog 41 5 40 4.4 96 96 Calm 30.33 1027 2 3 0.00 0.00
5:53 am 05:53 Clear with Mist and Fog 41 5 40 4.4 96 96 Calm 30.24 1024 3 5 0.00 0.00
6:53 am 06:53 Clear with Mist and Fog 41 5 40 4.4 96 96 Calm 30.27 1025 4 6 0.00 0.00
7:26 am 07:26 Clear with Mist and Fog 38 3.3 38 3.3 100 100 WNW 3 6 30.33 1027 2 3 0.00 0.00
7:31 am 07:31 Mostly Cloudy with Mist and Fog 39 3.9 38 3.3 96 96 NW 3 6 30.33 1027 1 1 0.00 0.00
7:39 am 07:39 Mostly Cloudy with Fog 41 5 40 4.4 96 96 Calm 30.36 1028 1 1 0.00 0.00
7:53 am 07:53 Mostly Cloudy with Fog 39 3.9 39 3.9 100 100 Calm 30.30 1026 1 1 0.00 0.00
8:04 am 08:04 Mostly Cloudy with Fog 40 4.4 39 3.9 97 97 Calm 30.36 1028 0 0 0.00 0.00
8:30 am 08:30 Mostly Cloudy with Mist and Fog 43 6.1 43 6.1 100 100 Calm 30.33 1027 1 2 0.00 0.00
8:34 am 08:34 Partly Cloudy with Mist and Fog 43 6.1 43 6.1 100 100 Calm 30.33 1027 4 6 0.00 0.00
8:53 am 08:53 Sunny 47 8.3 45 7.2 93 93 Calm 30.31 1026 10 16 0.00 0.00
9:53 am 09:53 Sunny 52 11.1 48 8.9 86 86 NNW 3 6 30.32 1027 10 16 0.00 0.00
10:53 am 10:53 Sunny 57 13.9 50 10 78 78 NW 3 6 30.32 1027 10 16 0.00 0.00
11:53 am 11:53 Sunny 62 16.7 48 8.9 60 60 SSE 5 7 30.31 1026 10 16 0.00 0.00
12:53 pm 12:53 Sunny 66 18.9 46 7.8 49 49 Calm 30.28 1025 10 16 0.00 0.00
1:53 pm 13:53 Sunny 70 21.1 42 5.6 37 37 Calm 30.25 1024 10 16 0.00 0.00
2:53 pm 14:53 Sunny 71 21.7 43 6.1 36 36 WSW 8 13 30.25 1025 8 13 0.00 0.00
3:53 pm 15:53 Sunny 71 21.7 40 4.4 32 32 Calm 30.24 1024 7 11 0.00 0.00
4:53 pm 16:53 Sunny 72 22.2 41 5 33 33 W 6 9 30.24 1024 7 11 0.00 0.00
5:53 pm 17:53 Hazy 69 20.6 44 6.7 41 41 WSW 3 6 30.24 1024 6 10 0.00 0.00
6:53 pm 18:53 Mostly Cloudy 68 20 47 8.3 47 47 Calm 30.24 1024 10 16 0.00 0.00
7:53 pm 19:53 Clear 60 15.6 51 10.6 72 72 Calm 30.26 1025 10 16 0.00 0.00
8:53 pm 20:53 Clear 56 13.3 50 10 81 81 Calm 30.27 1025 10 16 0.00 0.00
9:53 pm 21:53 Clear 52 11.1 50 10 93 93 Calm 30.28 1025 10 16 0.00 0.00
10:53 pm 22:53 Clear 50 10 47 8.3 89 89 Calm 30.28 1025 10 16 0.00 0.00
11:53 pm 23:53 Clear 51 10.6 46 7.8 83 83 Calm 30.27 1025 10 16 0.00 0.00

Powered by AerisWeather